SCP
0 0 0 0 0 0 0 0 0 -0 -0 0 -0 0 0 0 0 -0 0 -0 -0 0 0 0 0 0 0 0 0 0 0 0 0 0 0 0 0 0
0 0 0 0 0 0 0 0 0 0 0 0 0 0 0 0 0 -0 -0 -0 -0 -0 0 0 0 0 0 0 0 0 0 0 0 0 0 0 0 0
0 0 0 0 0 0 0 0 0 0 0 0 0 0 0 0 0 -0 -0 -0 0 -0 0 0 0 0 0 0 0 0 0 0 0 0 0 0 0 0
0 0 0 0 0 0 0 0 0 0 0 0 0 0 0 0 0 -0 -0 0 0 0 0 0 0 0 0 0 0 0 0 0 0 0 0 0 0 0
0 0 0 0 0 0 0 0 0 0 0 0 0 0 0 0 0 0 0 0 0 0 0 0 0 0 0 0 0 0 0 0 0 0 0 0 0 0
0 0 0 0 0 0 0 0 0 0 0 0 0 0 0 0 0 0 0 0 0 0 0 0 0 0 0 0 0 0 0 0 0 0 0 0 0 0
0 0 0 0 0 0 0 0 0 0 0 0 0 0 0 0 0 0 0 0 0 0 0 0 0 0 0 0 0 0 0 0 0 0 0 0 0 0
0 0 0 0 0 0 0 0 0 0 0 0 0 0 0 0 0 0 0 0 0 0 0 0 0 0 0 0 0 0 0 0 0 0 0 0 0 0
0 0 0 0 0 0 0 0 0 -0 0 0 0 0 0 0 0 0 0 0 0 0 0 0 0 0 0 0 0 0 0 0 0 0 0 0 0 0
0 0 0 0 0 0 0 0 0 0 0 0 0 0 0 0 0 0 0 0 0 0 0 0 0 0 0 0 0 0 0 0 0 0 0 0 0 0
0 0 0 0 0 0 0 0 0 0 0 0 0 0 0 0 0 0 0 0 0 0 0 0 0 0 0 0 0 0 0 0 0 0 0 0 0 0
0 0 0 0 0 0 0 0 0 0 0 0 0 0 0 0 0 0 0 0 0 0 0 0 0 0 0 0 0 0 0 0 0 0 0 0 0 0
0 0 0 0 0 0 0 0 0 0 0 0 0 0 0 0 0 0 0 0 0 0 0 0 0 0 0 0 0 0 0 0 0 0 0 0 0 0
0 0 0 0 0 0 0 0 0 0 0 0 0 0 0 0 0 0 0 0 0 0 0 0 0 0 0 0 0 0 0 0 0 0 -0 0 0 0
0 0 0 0 0 0 0 0 0 0 0 0 0 0 0 0 0 0 0 0 0 0 0 0 0 0 0 0 0 0 0 0 0 0 -0 -0 0 -0
0 0 0 0 0 0 0 0 0 0 0 0 0 0 0 0 0 0 0 0 0 0 0 0 0 0 0 0 0 0 0 0 0 0 0 -0 -0 -0
0 0 0 0 0 0 0 0 0 0 0 0 0 0 0 0 0 0 0 0 0 0 0 0 0 0 0 0 0 0 0 0 0 0 0 0 -0 -0
0 0 0 0 0 0 0 0 0 0 0 0 0 0 0 0 0 0 0 0 0 0 0 0 0 0 0 0 0 -0 -0 0 0 0 0 0 -0 -0
0 0 0 0 0 0 0 0 0 0 0 0 0 0 0 0 0 0 0 0 0 0 0 0 0 0 0 -0 -0 0 0 0 0 0 0 0 0 0
0 0 0 0 0 0 0 0 0 0 0 0 0 0 0 0 0 0 0 0 0 0 0 0 0 0 0 -0 -0 -0 0 0 0 0 0 0 0 0
0 0 0 0 0 0 0 0 0 0 0 0 0 0 0 0 0 0 0 0 0 0 0 0 0 0 0 -0 -0 -0 -0 -0 0 0 0 0 0 -0
0 0 0 0 0 0 0 0 0 0 0 0 0 0 0 0 0 0 0 0 0 0 0 0 0 0 -0 -0 -0 -0 -0 -0 -0 0 0 0 0 0
0 0 0 0 0 0 0 0 0 0 0 0 0 0 0 0 0 0 0 0 0 0 0 0 0 0 -0 -0 -0 -0 -0 -0 -0 0 0 0 0 0
Wind_Speed_500mb
42 38 35 35 35 37 42 46 51 52 70 54 63 69 96 98 100 104 106 108 107 106 105 104 104 102 95 85 85 82 81 83 84 85 84 90 98 121
46 41 37 36 37 39 43 47 50 57 71 86 93 98 98 107 108 111 112 112 107 103 98 95 92 88 84 81 83 85 87 89 90 90 89 88 91 99
46 42 39 35 36 40 46 51 55 60 83 107 99 106 106 108 109 112 114 110 105 97 88 78 75 76 79 80 83 85 86 89 87 88 93 93 96 98
46 42 38 36 38 42 48 55 58 60 72 100 109 108 108 107 109 112 115 111 105 101 89 77 74 73 75 76 76 79 81 84 91 94 94 103 104 101
45 41 38 36 39 45 50 56 59 64 68 84 110 107 107 104 109 109 117 119 108 106 92 82 76 71 70 71 75 79 81 83 87 91 99 114 120 118
45 43 39 37 40 46 54 58 58 63 69 77 93 105 105 104 100 104 108 97 97 102 101 84 78 76 75 72 69 67 73 83 87 89 94 104 107 107
47 42 41 38 42 49 54 54 57 60 63 74 91 100 103 91 82 99 106 111 107 90 99 98 91 88 89 76 74 80 83 83 80 90 74 94 105 126
49 46 39 38 41 47 49 46 49 50 61 70 82 86 108 98 93 95 104 106 124 99 82 104 92 106 99 93 97 94 88 86 81 89 90 83 108 112
49 46 38 39 43 44 43 47 43 43 51 62 79 88 107 100 104 111 106 109 123 119 105 117 105 107 103 107 97 92 90 81 81 81 84 78 88 103
49 43 38 40 41 38 44 46 50 52 61 64 77 85 93 97 95 106 115 117 119 113 83 101 112 101 108 109 92 82 81 85 80 80 81 79 68 91
47 44 38 40 31 37 40 45 52 61 65 67 75 76 75 82 91 97 107 105 122 141 97 99 130 106 102 98 93 84 83 83 88 84 74 75 72 79
51 42 40 30 34 32 34 42 61 68 69 71 76 82 82 80 74 62 70 86 93 113 78 76 96 87 104 102 95 89 99 96 78 69 67 81 71 67
48 42 30 28 30 32 30 46 54 55 61 68 72 78 77 75 71 67 63 74 93 111 95 80 92 98 94 110 96 93 90 98 89 86 72 65 72 87
46 36 26 26 27 27 35 40 43 47 53 61 68 75 78 78 76 71 72 80 86 103 107 99 111 102 90 98 110 95 90 88 89 90 94 93 85 83
49 35 32 26 19 23 32 37 38 40 49 59 67 74 78 81 84 80 79 88 95 95 95 88 94 101 94 119 120 102 94 95 88 92 86 97 100 89
44 32 28 21 18 20 27 30 32 38 48 58 68 76 81 84 90 82 90 95 101 108 93 86 91 100 108 115 104 117 107 107 91 87 82 88 87 96
37 33 26 18 21 24 26 29 34 40 49 57 68 77 82 85 93 83 83 99 100 107 107 90 82 84 95 103 107 104 104 111 109 108 91 94 92 98
37 31 22 20 23 25 27 29 33 41 48 57 65 75 81 85 93 88 84 95 99 102 102 95 89 88 88 95 89 104 105 108 112 103 89 87 94 103
31 26 22 21 20 23 27 30 37 40 49 59 65 75 81 88 88 83 96 94 99 99 98 93 88 78 82 84 99 81 89 108 102 91 94 99 104 112
33 24 23 20 21 24 26 31 36 43 52 61 68 77 84 87 84 92 97 98 100 105 103 92 85 79 78 85 89 105 85 80 92 94 86 88 101 95
28 23 21 20 23 26 29 32 38 44 53 64 70 79 86 91 85 98 101 100 100 98 103 99 89 85 88 87 92 102 107 102 97 97 87 82 82 86
24 21 19 20 25 28 30 34 40 47 54 64 72 81 89 88 96 100 103 106 104 99 103 104 97 85 77 75 87 93 103 100 102 96 96 109 79 69
24 20 18 22 25 26 29 35 42 48 52 63 73 82 89 95 101 102 104 104 103 102 100 106 97 82 79 75 82 89 90 97 90 83 84 91 100 96
Wind_Direction_500mb
278 277 277 282 287 295 301 306 309 310 310 303 314 310 309 310 313 312 310 308 305 304 304 299 294 290 286 283 281 280 277 272 269 266 264 253 243 234
272 271 271 277 287 294 298 301 302 300 297 302 302 306 309 312 311 311 310 309 309 308 305 300 293 288 286 285 282 279 276 271 267 262 260 251 250 243
265 265 268 274 282 290 295 298 298 297 297 300 303 304 307 309 310 310 309 312 313 311 310 303 296 292 287 282 279 276 273 268 264 262 257 253 249 248
259 261 264 273 282 287 291 293 294 296 297 299 301 304 306 309 310 311 314 314 314 315 311 306 299 292 286 283 281 278 275 272 268 264 257 251 250 244
255 256 257 265 278 286 292 293 294 295 297 296 300 303 307 312 313 315 315 315 314 315 308 304 300 291 284 281 278 277 277 275 272 266 265 255 244 238
253 251 256 268 280 289 292 293 294 297 296 295 299 305 311 316 315 313 308 304 301 303 303 296 296 292 286 283 280 279 274 270 266 268 266 265 248 242
250 251 258 273 284 289 291 289 294 295 301 305 306 308 304 304 302 301 298 302 300 300 300 299 298 295 291 282 276 274 281 283 273 265 265 259 258 241
248 249 260 272 286 289 284 290 289 295 297 295 292 288 295 298 300 298 296 297 298 301 297 296 294 296 291 286 286 284 285 284 275 264 263 259 249 248
248 254 262 279 283 280 284 288 291 285 278 285 287 288 295 299 301 297 291 290 287 290 291 289 289 284 285 288 289 286 286 282 277 268 263 262 250 247
249 258 270 278 275 280 286 292 299 304 304 303 296 296 294 297 295 294 295 291 290 290 286 278 290 283 289 291 290 285 280 283 278 271 267 263 258 246
253 256 267 267 280 286 289 298 299 301 303 298 293 290 290 291 291 289 284 286 285 283 282 277 281 283 283 285 288 282 279 278 284 275 261 257 259 260
246 254 259 272 278 284 289 302 295 299 302 301 302 302 302 304 305 293 290 286 283 285 288 276 276 279 281 280 280 275 278 284 280 271 263 252 252 261
243 245 249 261 275 281 279 278 291 299 298 300 303 306 310 318 319 316 301 288 284 280 283 280 284 277 268 277 276 276 276 279 281 268 248 247 254 254
240 243 251 259 266 277 284 293 297 300 306 307 310 316 320 321 321 317 305 295 288 282 289 281 280 271 276 276 273 275 275 274 279 278 262 252 256 257
234 231 235 244 265 283 289 296 302 311 314 317 321 323 323 324 322 322 309 304 299 294 290 289 280 277 270 264 270 272 273 270 269 273 271 264 258 257
224 220 230 239 258 274 287 295 315 325 325 325 326 328 327 330 329 328 310 310 304 300 294 286 277 273 274 269 268 266 265 264 263 266 271 255 251 253
215 217 223 243 260 272 289 309 323 329 330 330 329 331 330 334 334 330 308 308 302 300 299 296 288 280 273 269 266 264 261 258 258 264 262 250 252 256
207 211 218 236 258 282 300 316 330 331 329 331 331 333 332 332 334 326 309 307 302 300 299 298 297 294 288 280 260 258 261 253 254 260 260 250 252 256
211 217 229 249 270 290 307 325 333 335 331 334 335 335 335 337 329 317 313 310 305 303 300 298 295 288 285 280 276 245 265 248 245 243 242 244 248 255
205 219 244 262 280 293 308 325 330 333 335 335 335 337 342 337 326 315 316 313 309 306 303 300 292 284 274 272 279 272 256 260 245 237 240 243 246 261
199 222 247 270 282 294 312 322 329 334 335 335 337 340 344 341 322 319 317 315 312 307 304 301 297 292 283 278 271 271 260 264 263 251 251 244 242 254
204 226 251 273 283 296 313 318 327 333 335 337 338 342 344 341 328 324 321 317 315 310 305 304 304 298 285 270 266 267 270 263 260 255 260 247 241 240
209 227 253 270 281 301 313 320 327 332 334 337 340 342 345 335 340 330 322 320 317 315 313 311 309 303 288 275 266 267 267 268 266 267 259 252 252 256
Wind_Speed_850mb
42 38 35 35 35 37 42 46 51 52 70 54 63 69 96 98 100 104 106 108 107 106 105 104 104 102 95 85 85 82 81 83 84 85 84 90 98 121
46 41 37 36 37 39 43 47 50 57 71 86 93 98 98 107 108 111 112 112 107 103 98 95 92 88 84 81 83 85 87 89 90 90 89 88 91 99
46 42 39 35 36 40 46 51 55 60 83 107 99 106 106 108 109 112 114 110 105 97 88 78 75 76 79 80 83 85 86 89 87 88 93 93 96 98
46 42 38 36 38 42 48 55 58 60 72 100 109 108 108 107 109 112 115 111 105 101 89 77 74 73 75 76 76 79 81 84 91 94 94 103 104 101
45 41 38 36 39 45 50 56 59 64 68 84 110 107 107 104 109 109 117 119 108 106 92 82 76 71 70 71 75 79 81 83 87 91 99 114 120 118
45 43 39 37 40 46 54 58 58 63 69 77 93 105 105 104 100 104 108 97 97 102 101 84 78 76 75 72 69 67 73 83 87 89 94 104 107 107
47 42 41 38 42 49 54 54 57 60 63 74 91 100 103 91 82 99 106 111 107 90 99 98 91 88 89 76 74 80 83 83 80 90 74 94 105 126
49 46 39 38 41 47 49 46 49 50 61 70 82 86 108 98 93 95 104 106 124 99 82 104 92 106 99 93 97 94 88 86 81 89 90 83 108 112
49 46 38 39 43 44 43 47 43 43 51 62 79 88 107 100 104 111 106 109 123 119 105 117 105 107 103 107 97 92 90 81 81 81 84 78 88 103
49 43 38 40 41 38 44 46 50 52 61 64 77 85 93 97 95 106 115 117 119 113 83 101 112 101 108 109 92 82 81 85 80 80 81 79 68 91
47 44 38 40 31 37 40 45 52 61 65 67 75 76 75 82 91 97 107 105 122 141 97 99 130 106 102 98 93 84 83 83 88 84 74 75 72 79
51 42 40 30 34 32 34 42 61 68 69 71 76 82 82 80 74 62 70 86 93 113 78 76 96 87 104 102 95 89 99 96 78 69 67 81 71 67
48 42 30 28 30 32 30 46 54 55 61 68 72 78 77 75 71 67 63 74 93 111 95 80 92 98 94 110 96 93 90 98 89 86 72 65 72 87
46 36 26 26 27 27 35 40 43 47 53 61 68 75 78 78 76 71 72 80 86 103 107 99 111 102 90 98 110 95 90 88 89 90 94 93 85 83
49 35 32 26 19 23 32 37 38 40 49 59 67 74 78 81 84 80 79 88 95 95 95 88 94 101 94 119 120 102 94 95 88 92 86 97 100 89
44 32 28 21 18 20 27 30 32 38 48 58 68 76 81 84 90 82 90 95 101 108 93 86 91 100 108 115 104 117 107 107 91 87 82 88 87 96
37 33 26 18 21 24 26 29 34 40 49 57 68 77 82 85 93 83 83 99 100 107 107 90 82 84 95 103 107 104 104 111 109 108 91 94 92 98
37 31 22 20 23 25 27 29 33 41 48 57 65 75 81 85 93 88 84 95 99 102 102 95 89 88 88 95 89 104 105 108 112 103 89 87 94 103
31 26 22 21 20 23 27 30 37 40 49 59 65 75 81 88 88 83 96 94 99 99 98 93 88 78 82 84 99 81 89 108 102 91 94 99 104 112
33 24 23 20 21 24 26 31 36 43 52 61 68 77 84 87 84 92 97 98 100 105 103 92 85 79 78 85 89 105 85 80 92 94 86 88 101 95
28 23 21 20 23 26 29 32 38 44 53 64 70 79 86 91 85 98 101 100 100 98 103 99 89 85 88 87 92 102 107 102 97 97 87 82 82 86
24 21 19 20 25 28 30 34 40 47 54 64 72 81 89 88 96 100 103 106 104 99 103 104 97 85 77 75 87 93 103 100 102 96 96 109 79 69
24 20 18 22 25 26 29 35 42 48 52 63 73 82 89 95 101 102 104 104 103 102 100 106 97 82 79 75 82 89 90 97 90 83 84 91 100 96
Wind_Direction_850mb
278 277 277 282 287 295 301 306 309 310 310 303 314 310 309 310 313 312 310 308 305 304 304 299 294 290 286 283 281 280 277 272 269 266 264 253 243 234
272 271 271 277 287 294 298 301 302 300 297 302 302 306 309 312 311 311 310 309 309 308 305 300 293 288 286 285 282 279 276 271 267 262 260 251 250 243
265 265 268 274 282 290 295 298 298 297 297 300 303 304 307 309 310 310 309 312 313 311 310 303 296 292 287 282 279 276 273 268 264 262 257 253 249 248
259 261 264 273 282 287 291 293 294 296 297 299 301 304 306 309 310 311 314 314 314 315 311 306 299 292 286 283 281 278 275 272 268 264 257 251 250 244
255 256 257 265 278 286 292 293 294 295 297 296 300 303 307 312 313 315 315 315 314 315 308 304 300 291 284 281 278 277 277 275 272 266 265 255 244 238
253 251 256 268 280 289 292 293 294 297 296 295 299 305 311 316 315 313 308 304 301 303 303 296 296 292 286 283 280 279 274 270 266 268 266 265 248 242
250 251 258 273 284 289 291 289 294 295 301 305 306 308 304 304 302 301 298 302 300 300 300 299 298 295 291 282 276 274 281 283 273 265 265 259 258 241
248 249 260 272 286 289 284 290 289 295 297 295 292 288 295 298 300 298 296 297 298 301 297 296 294 296 291 286 286 284 285 284 275 264 263 259 249 248
248 254 262 279 283 280 284 288 291 285 278 285 287 288 295 299 301 297 291 290 287 290 291 289 289 284 285 288 289 286 286 282 277 268 263 262 250 247
249 258 270 278 275 280 286 292 299 304 304 303 296 296 294 297 295 294 295 291 290 290 286 278 290 283 289 291 290 285 280 283 278 271 267 263 258 246
253 256 267 267 280 286 289 298 299 301 303 298 293 290 290 291 291 289 284 286 285 283 282 277 281 283 283 285 288 282 279 278 284 275 261 257 259 260
246 254 259 272 278 284 289 302 295 299 302 301 302 302 302 304 305 293 290 286 283 285 288 276 276 279 281 280 280 275 278 284 280 271 263 252 252 261
243 245 249 261 275 281 279 278 291 299 298 300 303 306 310 318 319 316 301 288 284 280 283 280 284 277 268 277 276 276 276 279 281 268 248 247 254 254
240 243 251 259 266 277 284 293 297 300 306 307 310 316 320 321 321 317 305 295 288 282 289 281 280 271 276 276 273 275 275 274 279 278 262 252 256 257
234 231 235 244 265 283 289 296 302 311 314 317 321 323 323 324 322 322 309 304 299 294 290 289 280 277 270 264 270 272 273 270 269 273 271 264 258 257
224 220 230 239 258 274 287 295 315 325 325 325 326 328 327 330 329 328 310 310 304 300 294 286 277 273 274 269 268 266 265 264 263 266 271 255 251 253
215 217 223 243 260 272 289 309 323 329 330 330 329 331 330 334 334 330 308 308 302 300 299 296 288 280 273 269 266 264 261 258 258 264 262 250 252 256
207 211 218 236 258 282 300 316 330 331 329 331 331 333 332 332 334 326 309 307 302 300 299 298 297 294 288 280 260 258 261 253 254 260 260 250 252 256
211 217 229 249 270 290 307 325 333 335 331 334 335 335 335 337 329 317 313 310 305 303 300 298 295 288 285 280 276 245 265 248 245 243 242 244 248 255
205 219 244 262 280 293 308 325 330 333 335 335 335 337 342 337 326 315 316 313 309 306 303 300 292 284 274 272 279 272 256 260 245 237 240 243 246 261
199 222 247 270 282 294 312 322 329 334 335 335 337 340 344 341 322 319 317 315 312 307 304 301 297 292 283 278 271 271 260 264 263 251 251 244 242 254
204 226 251 273 283 296 313 318 327 333 335 337 338 342 344 341 328 324 321 317 315 310 305 304 304 298 285 270 266 267 270 263 260 255 260 247 241 240
209 227 253 270 281 301 313 320 327 332 334 337 340 342 345 335 340 330 322 320 317 315 313 311 309 303 288 275 266 267 267 268 266 267 259 252 252 256